Location: Lesignano de� Bagni
(44.6500°N, 10.3000°E)
Time: 13:47:41
(UTC+00:00)

Meteor 1-18 Rocket - Pass Details

Date: 03 March 2021
Orbit: 836 x 909 km, 81.2° (Epoch: 22 April)

Event Time Altitude Azimuth Distance (km) Brightness Sun altitude
Rises 17:48:15 0° 352° (N) 3,550 7.5 -7.7°
Reaches altitude 10° 17:50:46 10° 356° (N) 2,605 6.8 -8.2°
Maximum altitude 17:56:41 62° 77° (ENE) 1,018 4.4 -9.2°
Drops below altitude 10° 18:02:30 10° 157° (SSE) 2,571 6.5 -10.2°
Sets 18:04:58 0° 161° (SSE) 3,500 7.2 -10.7°
